Regional Weather Roundup
Issued by NWS

Home | Current Version | Previous Version | Graphics & Text | Print | Product List | Glossary On
Versions: 1 2 3 4 5 6 7 8 9 10 11 12 13 14 15 16 17 18 19 20 21 22 23 24 25 26 27 28 29 30 31 32 33 34 35 36 37 38 39 40 41 42 43 44 45 46 47 48 49 50
000
ASUS43 KBIS 291310
RWRND

NORTH DAKOTA REGIONAL WEATHER ROUNDUP
NATIONAL WEATHER SERVICE BISMARCK ND
800 AM CDT FRI JUL 29 2016

NOTE: "FAIR" INDICATES FEW OR NO CLOUDS BELOW 12,000 FEET WITH NO
SIGNIFICANT WEATHER AND/OR OBSTRUCTIONS TO VISIBILITY.


NDZ001>003-009>011-017-291400-
NORTHWEST NORTH DAKOTA

CITY           SKY/WX    TMP DP  RH WIND       PRES   REMARKS
WILLISTON      SUNNY     58  54  86 CALM      30.10S
MINOT          MOSUNNY   61  55  81 CALM      30.09F
MINOT AFB      SUNNY     58  54  86 CALM      30.09S
$$

NDZ018>021-031>035-040>046-291400-
SOUTHWEST NORTH DAKOTA

CITY           SKY/WX    TMP DP  RH WIND       PRES   REMARKS
BISMARCK       MOSUNNY   64  59  83 CALM      30.10R
DICKINSON      PTSUNNY   60  58  92 CALM      30.11R
GARRISON         N/A     62  61  96 CALM      30.10R
HETTINGER ARPT PTSUNNY   55  54  96 CALM      30.13S FOG
$$

NDZ004>008-012>016-024-026-027-054-291400-
NORTHEAST NORTH DAKOTA

CITY           SKY/WX    TMP DP  RH WIND       PRES   REMARKS
GRAND FORKS    MOSUNNY   62  57  83 NW3       30.09R
GRND FRKS AFB  SUNNY     61  56  84 N2        30.10R
DEVILS LAKE    SUNNY     62  59  90 CALM      30.12R
$$

NDZ022-023-025-028>030-036>039-047>053-291400-
SOUTHEAST NORTH DAKOTA

CITY           SKY/WX    TMP DP  RH WIND       PRES   REMARKS
FARGO          SUNNY     63  57  81 N3        30.08S
JAMESTOWN      PTSUNNY   63  59  87 CALM      30.10S
$$





USA.gov is the U.S. government's official web portal to all federal, state and local government web resources and services.